User: anonymous   Login
Location: Pabrico
(37.5827°N, 122.0063°W)
Time: 16:53:41
(UTC+00:00)
Language:

NOSS 2-2 (E) - Orbit

View from above orbital plane
View from above orbital plane
View from above satellite
View from above satellite

Ground track
Ground track

The orbit data is extracted from the following two-line orbital elements,

1 21809U 91076E   24172.87432392  .00002416  00000-0  25569-3 0  9990
2 21809  63.3071 285.8308 0903558  61.1961 307.6757 13.48765029  5993
Epoch (UTC): 20 June 2024 20:59:01
Eccentricity: 0.0903558
inclination: 63.3071°
perigee height: 403 km
apogee height: 1750 km
right ascension of ascending node: 285.8308°
argument of perigee: 61.1961°
revolutions per day: 13.48765029
mean anomaly at epoch: 307.6757°
orbit number at epoch: 599

The dashed part of the orbit path shows where the satellite is in the earth's shadow,  

DLR